Glens Falls, NY

4:43 PM EDT on October 16, 2019 (GMT -0400)
Bennett Memorial

Weather History for KGFL - August, 2019

Change the Weather History Date:

Tuesday, August 20, 2019

  Actual Average Record
Temperature  
Mean Temperature 67 °F 67 °F  
Max Temperature 83 °F 79 °F 96 °F (1916)
Min Temperature 51 °F 55 °F 43 °F (2007)
Degree Days  
Heating Degree Days 0 1  
Month to date heating degree days 5 20  
Since 1 June heating degree days 75 131  
Since 1 July heating degree days 5 41  
Cooling Degree Days 2 3  
Month to date cooling degree days 85 76  
Year to date cooling degree days 381 296  
Since 1 June cooling degree days 372 284  
Growing Degree Days 17 (Base 50)    
Moisture  
Dew Point 55 °F    
Average Humidity 67    
Maximum Humidity 100    
Minimum Humidity 34    
Precipitation  
Precipitation 0.00 in 0.11 in 1.86 in (1904)
Month to date precipitation 2.27 2.53  
Year to date precipitation 28.21 24.66  
Sea Level Pressure  
Sea Level Pressure 30.06 in    
Wind  
Wind Speed 3 mph (SSW)    
Max Wind Speed 13 mph    
Max Gust Speed 16 mph    
Visibility 6 miles    
Events Fog    
T = Trace of Precipitation, MM = Missing Value Source: NWS Daily Summary

Daily Weather History Graph

Daily Weather History Graph

Search for Another Location

Airport or City:

Astronomy

Aug. 20, 2019 Rise Set
Actual Time 6:04 AM EDT 7:50 PM EDT
Civil Twilight 5:34 AM EDT 8:20 PM EDT
Nautical Twilight 4:57 AM EDT 8:57 PM EDT
Astronomical Twilight 4:17 AM EDT 9:36 PM EDT
Moon 10:29 PM EDT (8/20) 10:47 AM EDT (8/20)
Length of Visible Light 14h 45m
Length of Day
13h 45m
Waning Gibbous, 78% of the Moon is Illuminated
Aug 20
Waning Gibbous
Aug 23
Last Quarter
Aug 30
New
Sep 5
First Quarter
Sep 14
Full

Hourly Weather History & Observations

Time (EDT) Temp. Heat Index Dew Point Humidity Pressure Visibility Wind Dir Wind Speed Gust Speed Precip Events Conditions
12:53 AM 60.1 °F - 59.0 °F 96% 30.04 in 10.0 mi Calm Calm - N/A   Clear
1:53 AM 57.9 °F - 55.9 °F 93% 30.04 in 10.0 mi West 3.5 mph - N/A   Clear
2:53 AM 55.9 °F - 54.0 °F 93% 30.05 in 10.0 mi Calm Calm - N/A   Clear
3:27 AM 54.0 °F - 53.1 °F 97% 30.06 in 1.8 mi Calm Calm - N/A   Clear
3:38 AM 55.9 °F - 55.0 °F 97% 30.05 in 3.0 mi Calm Calm - N/A   Clear
3:41 AM 54.0 °F - 54.0 °F 100% 30.05 in 1.5 mi Calm Calm - N/A   Clear
3:49 AM 53.6 °F - 53.6 °F 100% 30.05 in 0.5 mi Calm Calm - N/A Fog Fog
3:53 AM 55.0 °F - 54.0 °F 96% 30.05 in 0.5 mi Calm Calm - N/A Fog Fog
4:06 AM 55.0 °F - 55.0 °F 100% 30.06 in 2.5 mi Calm Calm - N/A   Clear
4:12 AM 54.0 °F - 54.0 °F 100% 30.06 in 0.8 mi Calm Calm - N/A   Clear
4:28 AM 54.0 °F - 52.0 °F 93% 30.06 in 2.0 mi Calm Calm - N/A   Clear
4:36 AM 54.0 °F - 54.0 °F 100% 30.05 in 4.0 mi Calm Calm - N/A   Clear
4:38 AM 54.0 °F - 54.0 °F 100% 30.05 in 1.8 mi Calm Calm - N/A   Clear
4:43 AM 54.0 °F - 53.1 °F 97% 30.06 in 1.0 mi Calm Calm - N/A   Mist
4:53 AM 55.0 °F - 54.0 °F 96% 30.05 in 0.8 mi Calm Calm - N/A   Clear
5:02 AM 52.0 °F - 52.0 °F 100% 30.06 in 0.5 mi Calm Calm - N/A Fog Fog
5:14 AM 53.1 °F - 52.0 °F 96% 30.06 in 0.5 mi Calm Calm - N/A Fog Fog
5:36 AM 52.0 °F - 52.0 °F 100% 30.06 in 1.0 mi Calm Calm - N/A   Clear
5:53 AM 52.0 °F - 52.0 °F 100% 30.07 in 1.2 mi Calm Calm - N/A   Clear
6:04 AM 52.0 °F - 52.0 °F 100% 30.07 in 0.2 mi Calm Calm - N/A Fog Fog
6:17 AM 53.1 °F - 52.0 °F 96% 30.08 in 0.5 mi Calm Calm - N/A Fog Fog
6:30 AM 52.0 °F - 52.0 °F 100% 30.08 in 2.0 mi Calm Calm - N/A   Clear
6:53 AM 54.0 °F - 53.1 °F 97% 30.09 in 9.0 mi Calm Calm - N/A   Clear
7:53 AM 64.9 °F - 57.9 °F 78% 30.10 in 10.0 mi North 5.8 mph - N/A   Clear
8:53 AM 70.0 °F - 57.0 °F 63% 30.10 in 10.0 mi WNW 3.5 mph - N/A   Clear
9:53 AM 72.0 °F - 55.0 °F 55% 30.11 in 10.0 mi Calm Calm - N/A   Clear
10:53 AM 73.9 °F - 55.9 °F 53% 30.11 in 10.0 mi SE 4.6 mph - N/A   Clear
11:53 AM 77.0 °F - 55.9 °F 48% 30.10 in 10.0 mi South 4.6 mph - N/A   Clear
12:53 PM 79.0 °F - 55.0 °F 44% 30.08 in 10.0 mi SSE 6.9 mph - N/A   Clear
1:53 PM 81.0 °F 81.1 °F 57.9 °F 45% 30.07 in 10.0 mi Variable 5.8 mph - N/A   Clear
2:53 PM 82.0 °F 81.7 °F 57.0 °F 42% 30.06 in 10.0 mi Variable 5.8 mph - N/A   Clear
3:53 PM 82.0 °F 81.7 °F 57.0 °F 42% 30.05 in 10.0 mi SSW 10.4 mph - N/A   Clear
4:53 PM 82.0 °F 81.6 °F 55.9 °F 41% 30.03 in 10.0 mi South 10.4 mph - N/A   Clear
5:53 PM 82.0 °F - 52.0 °F 35% 30.03 in 10.0 mi WSW 6.9 mph - N/A   Clear
6:53 PM 78.1 °F - 60.1 °F 54% 30.01 in 10.0 mi South 5.8 mph - N/A   Clear
7:53 PM 70.0 °F - 62.1 °F 76% 30.01 in 10.0 mi Calm Calm - N/A   Clear
8:53 PM 66.0 °F - 62.1 °F 87% 30.02 in 10.0 mi Calm Calm - N/A   Clear
9:53 PM 64.0 °F - 62.1 °F 93% 30.02 in 10.0 mi Calm Calm - N/A   Clear
10:53 PM 63.0 °F - 62.1 °F 97% 30.02 in 10.0 mi Calm Calm - N/A   Clear
11:53 PM 62.1 °F - 60.1 °F 93% 30.02 in 8.0 mi Calm Calm - N/A   Clear